[[{"header":{"parameterUnit":"m.s-1","parameterCategory":2,"la1":30.2991,"la2":30.254,"lo1":-89.0895,"lo2":-89.0444,"dy":0.0017,"dx":0.0017,"nx":28,"ny":28,"refTime":"2025-04-18T09:00:00:Z","depth":"0","parameterNumber":2,"parameterNumberName":"U-component_of_CURRENTS"},"data":[0,0,0,0,0,0,0,0,0,0,0,0,0,0,0,0,0,0,0,0,0,0,0,0,0,0,0,0,0,0,0,0,0,0,0,0,0,0,0,0,0,0,0,0,0,0,0,0,0,0,0,0,0,0,0,0,0,0,0.257,0.2571,0,0.2591,0.2591,0.2591,0.2566,0.2565,0.2564,0.2563,0.257,0.2571,0.2572,0,0,0,0,0,0,0,0,0,0,0,0,0,0.2514,0.2515,0.257,0.2571,0.2571,0.2591,0.2591,0.2591,0.2566,0.2565,0.2564,0.2563,0.257,0.2571,0.2572,0,0,0,0,0,0,0,0,0,0,0,0,0,0.2535,0.2515,0.257,0.2563,0.2562,0.2591,0.2591,0.2591,0.2566,0.2565,0.2564,0.2563,0.2569,0.2571,0.2572,0.2602,0,0,0.2576,0.2576,0,0,0,0,0,0,0,0,0.2534,0.2537,0.2563,0.2563,0.2563,0.2577,0.2574,0.2595,0.2566,0.2562,0.2563,0.2562,0.2573,0.2574,0.2578,0.2602,0.2603,0.2576,0.2577,0.2577,0.2578,0,0,0,0,0,0,0,0.2532,0.2536,0.2576,0.2564,0.2564,0.256,0.2562,0.2578,0.2572,0.2562,0.2561,0.2568,0.2573,0.2576,0.2578,0.2603,0.2576,0.2577,0.2578,0.2578,0.2739,0.2743,0,0,0,0,0,0,0.2535,0.2534,0.2576,0.2577,0.2548,0.2562,0.2564,0.2572,0.2572,0.2572,0.2568,0.2566,0.2575,0.2576,0.2578,0.2687,0.2577,0.2579,0.2579,0.2736,0.274,0.2744,0,0,0,0,0,0,0.2534,0.2539,0.2575,0.2558,0.2562,0.2565,0.2573,0.2573,0.2584,0.2577,0.2576,0.2582,0.2574,0.2576,0.262,0.2684,0.2579,0.258,0.2732,0.2737,0.2742,0.2857,0,0,0,0,0,0,0.2532,0.2538,0.2544,0.2558,0.2564,0.2608,0.2575,0.2574,0.259,0.2588,0.2588,0.2587,0.2573,0.2619,0.2622,0.2683,0.2581,0.2727,0.2734,0.274,0.2849,0.2866,0.288,0,0,0,0,0,0.253,0.2545,0.2545,0.255,0.2572,0.261,0.2613,0.2608,0.2592,0.2611,0.262,0.2587,0.2663,0.2622,0.2625,0.2689,0.2724,0.2732,0.274,0.2842,0.2863,0.288,0,0,0,0,0,0,0.2517,0.2545,0.2544,0.2564,0.2593,0.2606,0.2621,0.262,0.2641,0.2639,0.2624,0.2625,0.2698,0.2679,0.2634,0.2758,0.2692,0.2701,0.2769,0.2788,0.2804,0.2786,0.2582,0,0,0,0,0,0.252,0.2541,0.2568,0.2586,0.2603,0.2616,0.2629,0.2634,0.2653,0.266,0.2664,0.2684,0.2734,0.2745,0.2778,0.2831,0.2814,0.2878,0.2894,0.2907,0.2898,0.2936,0.2953,0.277,0.277,0.277,0,0,0.2515,0.2537,0.2545,0.2585,0.2603,0.2646,0.2621,0.2655,0.2696,0.266,0.2715,0.2742,0.2765,0.284,0.2869,0.2826,0.2959,0.2917,0.2928,0.2911,0.2946,0.2963,0.2979,0.2775,0.2774,0.2773,0,0,0.2533,0.2545,0.2575,0.2609,0.2653,0.2671,0.2687,0.272,0.274,0.2801,0.2806,0.2863,0.291,0.2947,0.2972,0.309,0.305,0.3112,0.3162,0.3201,0.3216,0.3228,0.3254,0.3267,0.3107,0.3107,0.3107,0,0.2528,0.2569,0.259,0.2638,0.2665,0.2688,0.2732,0.2772,0.2816,0.2842,0.2833,0.2943,0.2965,0.3065,0.3117,0.3125,0.313,0.3087,0.3219,0.323,0.3241,0.3264,0.3278,0.3114,0.3113,0.3112,0.3112,0,0.2577,0.2612,0.2638,0.2705,0.2739,0.2784,0.2841,0.2882,0.2908,0.2942,0.3041,0.3084,0.3133,0.3181,0.3186,0.3293,0.3269,0.3243,0.3162,0.3266,0.3285,0.3297,0.3123,0.3121,0.3119,0.3117,0,0,0.256,0.2652,0.2661,0.2702,0.2777,0.2815,0.2891,0.2964,0.302,0.3078,0.3146,0.3258,0.3263,0.3293,0.3321,0.3366,0.347,0.334,0.3339,0.335,0.3552,0.3487,0.3493,0.3464,0.3467,0.3469,0.3543,0,0.2592,0.2676,0.2717,0.2803,0.285,0.2897,0.2968,0.3038,0.3098,0.3176,0.3236,0.3321,0.3315,0.3356,0.3404,0.3459,0.3503,0.3451,0.3463,0.3463,0.3379,0.3505,0.3377,0.3428,0.3554,0.3556,0.3557,0,0.2625,0.2681,0.2755,0.2853,0.2879,0.2938,0.3037,0.3107,0.3216,0.3264,0.3334,0.3374,0.3472,0.3446,0.3554,0.3521,0.3544,0.3573,0.3576,0.3473,0.3419,0.3342,0.3443,0.3363,0.3574,0.3573,0.3572,0,0.26,0.2707,0.2762,0.2798,0.2914,0.2959,0.3021,0.3126,0.317,0.3316,0.335,0.3464,0.3522,0.3569,0.362,0.3596,0.3724,0.3686,0.3647,0.3642,0.351,0.3489,0.3513,0.3754,0.3754,0.3754,0.3754,0,0.2616,0.267,0.2759,0.2801,0.2861,0.2958,0.3025,0.3114,0.3214,0.3278,0.3382,0.3443,0.3557,0.3626,0.3654,0.3691,0.3742,0.3677,0.3667,0.3551,0.3533,0.3434,0.339,0.3757,0.3756,0.3756,0.3755,0,0.2598,0.2649,0.2717,0.2828,0.2847,0.2896,0.2969,0.3046,0.3148,0.3229,0.3268,0.3435,0.3554,0.3636,0.3752,0.3729,0.3669,0.3768,0.3623,0.3594,0.3445,0.3411,0.3284,0.3183,0.373,0.3729,0.3729,0,0.2607,0.2643,0.2701,0.2728,0.2781,0.2839,0.289,0.2987,0.3058,0.3209,0.3262,0.3409,0.3505,0.3648,0.3681,0.3727,0.3632,0.3615,0.354,0.3439,0.3395,0.3267,0.3181,0.3428,0.3424,0.3422,0.3419,0,0.2646,0.2651,0.2706,0.2716,0.2762,0.2773,0.2855,0.286,0.3003,0.3065,0.3185,0.3269,0.3446,0.3477,0.3566,0.3565,0.3432,0.3559,0.3499,0.3202,0.3018,0.2913,0.3375,0.3396,0.3398,0.34,0.3401,0.3402,0.2679,0.2687,0.2724,0.2723,0.2749,0.273,0.2702,0.2789,0.2813,0.2899,0.3055,0.3141,0.3287,0.3397,0.3376,0.3275,0.3258,0.3182,0.3166,0.3058,0.2899,0.3304,0.328,0.3281,0.3283,0.3284,0.3285,0,0.2717,0.2718,0.2737,0.2706,0.2686,0.2696,0.2702,0.2658,0.2643,0.2774,0.2846,0.2955,0.2998,0.3073,0.3052,0.2927,0.2783,0.2837,0.2641,0.2589,0.3001,0.2928,0.277,0.277,0.277,0.277,0.2771,0.2771,0.2748,0.2741,0.2704,0.2633,0.2613,0.2512,0.2473,0.2423,0.2455,0.2465,0.2514,0.2641,0.2798,0.2878,0.2767,0.2684,0.2466,0.2336,0.2332,0.2652,0.2683,0.2712,0.2634,0.2418,0.2418,0.1812,0.1807,0.1804]},{"header":{"parameterUnit":"m.s-1","parameterCategory":2,"la1":30.2991,"la2":30.254,"lo1":-89.0895,"lo2":-89.0444,"dy":0.0017,"dx":0.0017,"nx":28,"ny":28,"refTime":"2025-04-18T09:00:00:Z","depth":"0","parameterNumber":3,"parameterNumberName":"V-component_of_CURRENTS"},"data":[0,0,0,0,0,0,0,0,0,0,0,0,0,0,0,0,0,0,0,0,0,0,0,0,0,0,0,0,0,0,0,0,0,0,0,0,0,0,0,0,0,0,0,0,0,0,0,0,0,0,0,0,0,0,0,0,0,0,0.0173,0.0173,0,0.0101,0.01,0.0099,0.0052,0.0052,0.0052,0.0052,-0.0064,-0.0067,-0.007,0,0,0,0,0,0,0,0,0,0,0,0,0,0.0193,0.0193,0.0173,0.0173,0.0172,0.0102,0.01,0.0099,0.0052,0.0052,0.0052,0.0052,-0.0063,-0.0067,-0.007,0,0,0,0,0,0,0,0,0,0,0,0,0,0.0156,0.0193,0.0173,0.0143,0.0139,0.0102,0.01,0.0098,0.0052,0.0052,0.0052,0.0052,-0.0062,-0.0066,-0.0071,-0.01,0,0,-0.0085,-0.0087,0,0,0,0,0,0,0,0,0.0158,0.0155,0.0148,0.0145,0.0141,0.0089,0.0065,0.0031,0.0052,0.0081,0.0052,0.0052,-0.0015,-0.0023,-0.0041,-0.0105,-0.011,-0.0085,-0.0088,-0.009,-0.0091,0,0,0,0,0,0,0,0.0161,0.0157,0.0141,0.0147,0.0143,0.0107,0.0102,0.0058,0.003,0.0078,0.0076,0.0074,-0.0017,-0.0037,-0.0044,-0.0112,-0.0085,-0.0089,-0.0092,-0.0094,-0.0224,-0.0224,0,0,0,0,0,0,0.0181,0.016,0.0143,0.0139,0.0154,0.0107,0.0101,0.0102,0.0032,0.0022,0.0074,0.0072,-0.0029,-0.0039,-0.0049,-0.0085,-0.009,-0.0094,-0.0097,-0.0223,-0.0224,-0.0225,0,0,0,0,0,0,0.0182,0.018,0.0146,0.015,0.0144,0.0107,0.0109,0.0101,0.0087,0.0029,0.0018,0.0069,-0.0029,-0.0042,-0.0084,-0.009,-0.0097,-0.0101,-0.0222,-0.0223,-0.0224,-0.016,0,0,0,0,0,0,0.0183,0.0181,0.0185,0.0152,0.0145,0.0134,0.0109,0.01,0.0087,0.0084,0.0021,0.001,-0.003,-0.0077,-0.0089,-0.0096,-0.0104,-0.0221,-0.0223,-0.0224,-0.0161,-0.0158,-0.0156,0,0,0,0,0,0.0184,0.0196,0.0186,0.0184,0.0153,0.0135,0.0128,0.0098,0.0088,0.0085,0.004,0.0013,-0.0094,-0.0081,-0.0095,-0.0104,-0.0221,-0.0222,-0.0224,-0.0162,-0.0159,-0.0156,0,0,0,0,0,0,0.0207,0.0192,0.018,0.0187,0.0167,0.0129,0.0125,0.0105,0.0067,0.0063,0.0007,-0.0007,-0.0048,-0.0086,-0.0071,-0.0147,-0.0163,-0.0168,-0.0112,-0.0109,-0.0107,-0.0064,-0.0108,0,0,0,0,0,0.0216,0.0219,0.0197,0.0201,0.0196,0.0161,0.0149,0.0131,0.0096,0.008,0.0037,-0.0016,-0.0067,-0.0093,-0.0141,-0.0179,-0.0185,-0.0197,-0.0195,-0.0192,-0.0169,-0.0189,-0.0185,-0.0229,-0.0229,-0.0229,0,0,0.0225,0.0218,0.0219,0.0206,0.0187,0.0186,0.0153,0.0144,0.0137,0.0072,0.0048,-0.0006,-0.0075,-0.0118,-0.0141,-0.015,-0.0182,-0.0194,-0.0191,-0.0169,-0.019,-0.0185,-0.0181,-0.023,-0.023,-0.023,0,0,0.0251,0.0242,0.0255,0.0244,0.0228,0.0206,0.021,0.0177,0.0157,0.0126,0.0073,0.0027,-0.0048,-0.0096,-0.0132,-0.0144,-0.0166,-0.0172,-0.0127,-0.0147,-0.0142,-0.0138,-0.0127,-0.0123,-0.0173,-0.0173,-0.0173,0,0.0261,0.0279,0.0255,0.0265,0.0264,0.0223,0.0237,0.0207,0.0163,0.0155,0.013,0.0029,-0.0033,-0.0084,-0.0096,-0.0136,-0.0139,-0.0129,-0.014,-0.0136,-0.0133,-0.0123,-0.0119,-0.017,-0.0171,-0.0171,-0.0171,0,0.0299,0.031,0.0318,0.0319,0.0312,0.0317,0.0284,0.027,0.0243,0.0215,0.017,0.0085,0.0034,-0.0011,-0.006,-0.0083,-0.0089,-0.0129,-0.0136,-0.0124,-0.0115,-0.0111,-0.0166,-0.0167,-0.0168,-0.0169,0,0,0.0327,0.0343,0.0346,0.0364,0.0344,0.0349,0.0337,0.0324,0.0337,0.027,0.0281,0.0165,0.0132,0.0089,0.0014,-0.0018,-0.0012,-0.006,-0.0063,-0.0027,-0.0027,-0.0027,-0.0024,-0.0054,-0.0053,-0.0053,-0.0023,0,0.0363,0.041,0.0399,0.0435,0.0458,0.0425,0.0425,0.0404,0.038,0.0378,0.0288,0.0258,0.0164,0.0141,0.0095,0.0023,-0.0003,-0.0014,-0.0062,-0.0062,-0.0047,-0.002,-0.0026,-0.0,-0.002,-0.002,-0.0019,0,0.0402,0.0433,0.0487,0.0515,0.0522,0.0537,0.0554,0.0547,0.0521,0.0504,0.0461,0.0394,0.0333,0.0251,0.0155,0.0155,0.0076,0.0013,0.0012,-0.0003,-0.0056,-0.0022,0.0006,-0.0149,-0.0014,-0.0015,-0.0015,0,0.0453,0.049,0.0544,0.0553,0.0577,0.06,0.0608,0.0597,0.0619,0.0595,0.0626,0.0523,0.0513,0.0386,0.0251,0.0206,0.0167,0.0087,0.0015,0.0015,-0.0005,-0.0008,-0.0113,0.0024,0.0024,0.0024,0.0024,0,0.0501,0.0545,0.0582,0.0617,0.0685,0.0673,0.074,0.0733,0.0755,0.0826,0.0706,0.0753,0.0548,0.0489,0.0326,0.0212,0.0228,0.0049,0.0025,0.0016,0.0015,-0.0134,-0.0232,0.0025,0.0025,0.0025,0.0025,0,0.0568,0.0578,0.0656,0.0705,0.0718,0.0779,0.0838,0.0906,0.0901,0.1001,0.1002,0.0952,0.0887,0.0686,0.0516,0.0348,0.0115,0.0147,0.017,0.0146,-0.0092,-0.0186,-0.0289,-0.0362,0.0073,0.0073,0.0073,0,0.0625,0.0672,0.074,0.0806,0.0843,0.0915,0.0982,0.0981,0.1069,0.1144,0.1226,0.118,0.1195,0.0951,0.0629,0.0365,0.0173,0.0169,0.0059,-0.008,-0.0204,-0.0271,-0.0331,0.0063,0.0063,0.0063,0.0063,0,0.077,0.0787,0.0863,0.0967,0.1055,0.1127,0.1224,0.1302,0.1349,0.1443,0.1579,0.1592,0.1361,0.1099,0.0711,0.0496,0.0055,0.0162,0.0,-0.0222,-0.0285,-0.0373,0.0037,0.0064,0.0064,0.0063,0.0063,0.0063,0.0914,0.0991,0.1081,0.1173,0.1257,0.1355,0.1431,0.1561,0.1699,0.1857,0.1861,0.1923,0.149,0.0964,0.0669,0.0085,0.0075,-0.011,-0.0207,-0.0256,-0.035,0.0085,0.0084,0.0084,0.0084,0.0085,0.0085,0,0.11,0.1171,0.1286,0.1384,0.1471,0.1463,0.1611,0.1707,0.1899,0.2057,0.2169,0.1973,0.1474,0.0919,0.0132,-0.0229,-0.0384,-0.043,-0.0551,-0.0593,-0.0218,-0.0244,-0.0294,-0.0294,-0.0293,-0.0293,-0.0293,-0.0293,0.1226,0.136,0.1381,0.1547,0.1603,0.1706,0.1782,0.1944,0.2072,0.2247,0.2264,0.2272,0.1753,0.0458,-0.0401,-0.059,-0.085,-0.0893,-0.1008,-0.0789,-0.0768,-0.0747,-0.0795,-0.096,-0.0961,-0.1346,-0.135,-0.1353]}],[{"header":{"parameterUnit":"m.s-1","parameterCategory":2,"la1":30.2991,"la2":30.254,"lo1":-89.0895,"lo2":-89.0444,"dy":0.0017,"dx":0.0017,"nx":28,"ny":28,"refTime":"2025-04-18T09:00:00:Z","depth":"2","parameterNumber":2,"parameterNumberName":"U-component_of_CURRENTS"},"data":[0,0,0,0,0,0,0,0,0,0,0,0,0,0,0,0,0,0,0,0,0,0,0,0,0,0,0,0,0,0,0,0,0,0,0,0,0,0,0,0,0,0,0,0,0,0,0,0,0,0,0,0,0,0,0,0,0,0,0.2235,0.2236,0,0.2274,0.2274,0.2275,0.2274,0.2274,0.2274,0.2273,0.2278,0.2278,0.2279,0,0,0,0,0,0,0,0,0,0,0,0,0,0.2173,0.2174,0.2235,0.2236,0.2236,0.2274,0.2274,0.2275,0.2274,0.2274,0.2274,0.2273,0.2278,0.2278,0.2279,0,0,0,0,0,0,0,0,0,0,0,0,0,0.2202,0.2174,0.2235,0.2243,0.2245,0.2274,0.2274,0.2275,0.2274,0.2274,0.2274,0.2273,0.2278,0.2278,0.2279,0.2288,0,0,0.228,0.2281,0,0,0,0,0,0,0,0,0.22,0.2203,0.2241,0.2243,0.2244,0.2272,0.2255,0.2279,0.2274,0.2259,0.2273,0.2273,0.2275,0.2276,0.228,0.2288,0.2289,0.228,0.2281,0.2281,0.2281,0,0,0,0,0,0,0,0.2198,0.2202,0.2247,0.2242,0.2244,0.225,0.2253,0.2259,0.2265,0.2261,0.2262,0.2271,0.2275,0.2279,0.228,0.2289,0.228,0.2281,0.2281,0.2281,0.2415,0.2419,0,0,0,0,0,0,0.22,0.22,0.2246,0.2248,0.2225,0.2252,0.2255,0.2261,0.2266,0.2268,0.2272,0.2271,0.2279,0.2279,0.228,0.2365,0.2281,0.2281,0.2282,0.2412,0.2416,0.242,0,0,0,0,0,0,0.2198,0.2203,0.2244,0.2228,0.2234,0.2253,0.2259,0.2262,0.2279,0.2275,0.2276,0.2289,0.2278,0.2279,0.2309,0.2362,0.2282,0.2282,0.2408,0.2413,0.2418,0.2488,0,0,0,0,0,0,0.2196,0.2202,0.2211,0.2228,0.2235,0.2277,0.226,0.2263,0.2287,0.2287,0.229,0.229,0.2278,0.2308,0.2309,0.2362,0.2282,0.2404,0.2411,0.2416,0.2482,0.2495,0.2506,0,0,0,0,0,0.2194,0.2213,0.2211,0.2217,0.2245,0.2278,0.2283,0.2293,0.2288,0.2305,0.2312,0.229,0.2349,0.231,0.2311,0.2365,0.2401,0.2409,0.2416,0.2476,0.2493,0.2506,0,0,0,0,0,0,0.2197,0.2216,0.2213,0.2238,0.2262,0.228,0.2301,0.2304,0.2323,0.2326,0.2313,0.2314,0.2366,0.2361,0.2319,0.2428,0.238,0.2387,0.2426,0.2441,0.2453,0.2469,0.2283,0,0,0,0,0,0.22,0.2217,0.2236,0.226,0.2272,0.2287,0.2304,0.2313,0.233,0.2338,0.2344,0.2365,0.2397,0.2412,0.2432,0.2477,0.2471,0.2523,0.2535,0.2545,0.2564,0.2632,0.2652,0.2444,0.2444,0.2444,0,0,0.2202,0.2223,0.2228,0.2262,0.2279,0.231,0.2296,0.2332,0.2358,0.2336,0.2378,0.2401,0.2419,0.2477,0.2503,0.2478,0.2591,0.2554,0.2562,0.2576,0.2642,0.2662,0.268,0.2449,0.2448,0.2447,0,0,0.2226,0.2241,0.226,0.229,0.2329,0.234,0.2354,0.2384,0.2396,0.2446,0.2444,0.2507,0.2539,0.2575,0.2595,0.2692,0.2652,0.27,0.2772,0.2839,0.2856,0.2871,0.2836,0.2847,0.2707,0.2708,0.2708,0,0.2223,0.2261,0.2274,0.2315,0.2344,0.2356,0.2391,0.2411,0.2448,0.2477,0.2474,0.2585,0.2598,0.2683,0.2725,0.272,0.2712,0.2705,0.2853,0.2868,0.2882,0.2843,0.2855,0.2712,0.2711,0.2711,0.2711,0,0.2271,0.2302,0.2326,0.2372,0.2404,0.2444,0.2471,0.2509,0.2536,0.2566,0.2661,0.2699,0.2771,0.2796,0.279,0.2906,0.2847,0.2854,0.2806,0.2907,0.2859,0.287,0.2718,0.2716,0.2715,0.2714,0,0,0.2248,0.2334,0.2342,0.2377,0.244,0.2472,0.2526,0.2584,0.2635,0.2698,0.2777,0.2871,0.2903,0.2931,0.2942,0.301,0.309,0.298,0.2982,0.2927,0.3163,0.3097,0.3101,0.312,0.3124,0.3127,0.3067,0,0.2274,0.2345,0.2389,0.2462,0.2495,0.2546,0.2597,0.2658,0.2713,0.2792,0.2864,0.2948,0.2945,0.2998,0.3067,0.3097,0.3132,0.31,0.3091,0.3089,0.3006,0.3119,0.2892,0.2822,0.3078,0.308,0.3081,0,0.23,0.2347,0.2411,0.2505,0.2527,0.2576,0.2675,0.2731,0.2836,0.2887,0.2989,0.3034,0.3145,0.3134,0.3229,0.3205,0.3195,0.3205,0.3203,0.3133,0.3048,0.2777,0.2831,0.3099,0.3097,0.3096,0.3095,0,0.227,0.2363,0.2414,0.245,0.2554,0.2603,0.2662,0.2763,0.2809,0.2955,0.3012,0.3137,0.3207,0.3258,0.3282,0.3266,0.3357,0.333,0.324,0.3229,0.3034,0.3002,0.3396,0.3396,0.3396,0.3397,0.3397,0,0.2279,0.2326,0.2406,0.2445,0.2506,0.2598,0.2684,0.276,0.2869,0.294,0.3057,0.3129,0.3256,0.331,0.3309,0.3308,0.3375,0.3274,0.3246,0.3046,0.3018,0.3268,0.3254,0.3394,0.3395,0.3395,0.3396,0,0.2252,0.2302,0.2365,0.2469,0.2491,0.2543,0.2652,0.2725,0.2836,0.293,0.2981,0.3138,0.3236,0.3292,0.3377,0.3334,0.3346,0.3312,0.3024,0.2967,0.3142,0.3133,0.3207,0.3205,0.3203,0.3202,0.3201,0,0.2252,0.2291,0.2357,0.2386,0.2436,0.2516,0.2569,0.268,0.2745,0.2921,0.2956,0.3103,0.3167,0.3241,0.3247,0.3219,0.3292,0.2973,0.2941,0.3176,0.3141,0.3134,0.3127,0.2661,0.2656,0.2651,0.2648,0,0.2294,0.2313,0.2375,0.2382,0.2428,0.2468,0.2549,0.2553,0.2704,0.2775,0.2878,0.295,0.3053,0.2984,0.2991,0.2945,0.2973,0.2881,0.3238,0.2769,0.2665,0.263,0.264,0.2607,0.2611,0.2614,0.2617,0.2618,0.2341,0.2367,0.2419,0.2421,0.2451,0.2426,0.2419,0.2483,0.2524,0.2575,0.2706,0.272,0.2775,0.2692,0.261,0.2564,0.276,0.2632,0.2644,0.2661,0.2635,0.2538,0.2442,0.2445,0.2448,0.245,0.2452,0,0.2398,0.2434,0.2456,0.245,0.2435,0.2441,0.2423,0.2381,0.2361,0.2396,0.2435,0.2244,0.2215,0.2264,0.2142,0.2141,0.21,0.205,0.1982,0.2025,0.2063,0.2004,0.1644,0.1641,0.1639,0.1636,0,0,0.245,0.2458,0.2431,0.2407,0.2419,0.236,0.2306,0.2197,0.2159,0.202,0.1973,0.2111,0.2204,0.189,0.1862,0.1737,0.1857,0.1665,0.2322,0.2287,0.2321,0.2418,0.238,0,0,0,0,0]},{"header":{"parameterUnit":"m.s-1","parameterCategory":2,"la1":30.2991,"la2":30.254,"lo1":-89.0895,"lo2":-89.0444,"dy":0.0017,"dx":0.0017,"nx":28,"ny":28,"refTime":"2025-04-18T09:00:00:Z","depth":"2","parameterNumber":3,"parameterNumberName":"V-component_of_CURRENTS"},"data":[0,0,0,0,0,0,0,0,0,0,0,0,0,0,0,0,0,0,0,0,0,0,0,0,0,0,0,0,0,0,0,0,0,0,0,0,0,0,0,0,0,0,0,0,0,0,0,0,0,0,0,0,0,0,0,0,0,0,0.0012,0.0012,0,-0.0037,-0.0038,-0.0039,-0.0078,-0.0078,-0.0078,-0.0078,-0.018,-0.0183,-0.0185,0,0,0,0,0,0,0,0,0,0,0,0,0,0.0019,0.0019,0.0012,0.0012,0.0012,-0.0037,-0.0038,-0.0039,-0.0078,-0.0078,-0.0078,-0.0078,-0.018,-0.0183,-0.0186,0,0,0,0,0,0,0,0,0,0,0,0,0,-0.0005,0.0019,0.0013,-0.0012,-0.0014,-0.0037,-0.0038,-0.0039,-0.0078,-0.0078,-0.0078,-0.0078,-0.0179,-0.0182,-0.0186,-0.0205,0,0,-0.0198,-0.0199,0,0,0,0,0,0,0,0,-0.0003,-0.0005,-0.0008,-0.001,-0.0013,-0.0049,-0.0073,-0.0096,-0.0078,-0.0056,-0.0078,-0.0079,-0.014,-0.0147,-0.0158,-0.0209,-0.0214,-0.0198,-0.02,-0.0202,-0.0203,0,0,0,0,0,0,0,-0.0001,-0.0003,-0.001,-0.0008,-0.0011,-0.0039,-0.0042,-0.0078,-0.0099,-0.0058,-0.006,-0.0062,-0.0142,-0.0154,-0.0161,-0.0215,-0.0198,-0.0201,-0.0204,-0.0205,-0.0339,-0.0341,0,0,0,0,0,0,0.0013,-0.0001,-0.0008,-0.0011,-0.0006,-0.0038,-0.0042,-0.0039,-0.0097,-0.0105,-0.0062,-0.0064,-0.0148,-0.0156,-0.0165,-0.0187,-0.0202,-0.0206,-0.0208,-0.0338,-0.034,-0.0341,0,0,0,0,0,0,0.0013,0.0013,-0.0006,-0.0006,-0.001,-0.0037,-0.0034,-0.004,-0.0049,-0.0099,-0.0109,-0.0064,-0.0148,-0.0159,-0.0195,-0.0191,-0.0207,-0.0211,-0.0337,-0.0339,-0.034,-0.0233,0,0,0,0,0,0,0.0014,0.0013,0.0019,-0.0005,-0.0009,-0.001,-0.0034,-0.0041,-0.0049,-0.0052,-0.0104,-0.0114,-0.0149,-0.0189,-0.0199,-0.0197,-0.0214,-0.0335,-0.0338,-0.034,-0.0235,-0.0231,-0.0228,0,0,0,0,0,0.0014,0.003,0.0019,0.0019,-0.0,-0.0009,-0.0014,-0.0037,-0.0049,-0.0047,-0.0087,-0.0113,-0.0212,-0.0192,-0.0203,-0.0203,-0.0334,-0.0337,-0.034,-0.0237,-0.0232,-0.0228,0,0,0,0,0,0,0.0037,0.0026,0.0015,0.0026,0.0013,-0.0014,-0.0014,-0.0031,-0.0061,-0.0065,-0.0115,-0.0128,-0.0161,-0.0206,-0.0183,-0.0256,-0.0283,-0.0288,-0.0201,-0.0197,-0.0194,-0.0153,-0.0217,0,0,0,0,0,0.0045,0.0052,0.0035,0.0043,0.0039,0.0012,0.0006,-0.0009,-0.0036,-0.0049,-0.0086,-0.0139,-0.0183,-0.0206,-0.0252,-0.0282,-0.0303,-0.0299,-0.0295,-0.0291,-0.0271,-0.0296,-0.029,-0.035,-0.035,-0.035,0,0,0.0055,0.0051,0.0054,0.0048,0.0034,0.0042,0.0007,0.0005,0.0009,-0.0057,-0.0068,-0.0121,-0.019,-0.0223,-0.0244,-0.0256,-0.029,-0.0295,-0.029,-0.0272,-0.0298,-0.0291,-0.0285,-0.0352,-0.0352,-0.0352,0,0,0.0087,0.0077,0.0095,0.009,0.0079,0.0064,0.0068,0.0044,0.003,0.0009,-0.0041,-0.0081,-0.0154,-0.019,-0.0222,-0.023,-0.0267,-0.0267,-0.0209,-0.0233,-0.0227,-0.0222,-0.024,-0.0238,-0.0266,-0.0265,-0.0265,0,0.0098,0.0123,0.0098,0.0116,0.0121,0.0081,0.0106,0.0086,0.0052,0.0046,0.0015,-0.0079,-0.0133,-0.0163,-0.0172,-0.0214,-0.0237,-0.0208,-0.0222,-0.0217,-0.0213,-0.0234,-0.0232,-0.0261,-0.0261,-0.0262,-0.0262,0,0.0147,0.0164,0.0176,0.0187,0.0186,0.0199,0.0176,0.0167,0.014,0.0117,0.008,0.0005,-0.0047,-0.0085,-0.0129,-0.0141,-0.0169,-0.0205,-0.0214,-0.0199,-0.0225,-0.0224,-0.0254,-0.0255,-0.0257,-0.0258,0,0,0.0179,0.0207,0.0211,0.0234,0.0227,0.0237,0.0241,0.0239,0.0252,0.0194,0.0204,0.0114,0.0072,0.0032,-0.0035,-0.0062,-0.0061,-0.0118,-0.0121,-0.0103,-0.011,-0.0142,-0.0145,-0.0097,-0.0096,-0.0096,-0.0136,0,0.0226,0.0287,0.0281,0.0332,0.0363,0.0333,0.0345,0.0332,0.0307,0.0302,0.0224,0.0196,0.0115,0.009,0.0054,-0.0031,-0.0057,-0.0046,-0.0157,-0.0159,-0.0161,-0.0145,-0.0127,-0.0162,-0.0136,-0.0136,-0.0136,0,0.0277,0.0316,0.0381,0.042,0.043,0.0446,0.0466,0.0473,0.0447,0.0426,0.0386,0.0319,0.0268,0.0195,0.0086,0.0095,0.0007,-0.0062,-0.0066,-0.0127,-0.0191,-0.0178,-0.0163,-0.0136,-0.0136,-0.0136,-0.0136,0,0.0328,0.0383,0.0443,0.0456,0.049,0.0508,0.052,0.0511,0.0535,0.0509,0.0522,0.0434,0.0404,0.0288,0.0132,0.0111,0.0015,-0.0033,-0.0142,-0.0146,-0.0167,-0.0173,-0.01,-0.01,-0.01,-0.01,-0.0099,0,0.0383,0.0429,0.0473,0.0507,0.0572,0.0571,0.0632,0.0624,0.0642,0.0689,0.0594,0.0609,0.0426,0.0337,0.0184,0.0029,0.0053,-0.0115,-0.0153,-0.0134,-0.0136,-0.0149,-0.0154,-0.0101,-0.0101,-0.01,-0.01,0,0.0419,0.0453,0.0526,0.058,0.0598,0.0644,0.0709,0.0758,0.0761,0.0824,0.0821,0.0749,0.0634,0.0443,0.0256,0.011,-0.0048,-0.0115,-0.0079,-0.0111,-0.0205,-0.0204,-0.0224,-0.0225,-0.0226,-0.0227,-0.0228,0,0.044,0.0486,0.0574,0.0629,0.0654,0.0726,0.0779,0.0808,0.087,0.0914,0.0954,0.0865,0.0799,0.0516,0.025,-0.001,-0.0049,-0.0165,-0.0205,-0.018,-0.0215,-0.0213,-0.0211,-0.0193,-0.0194,-0.0194,-0.0195,0,0.0481,0.0514,0.058,0.0687,0.076,0.0851,0.0931,0.0992,0.1044,0.1099,0.1141,0.1089,0.0829,0.0565,0.0208,0.003,-0.0124,-0.0181,-0.0154,-0.0168,-0.0156,-0.0189,-0.0187,-0.0198,-0.0198,-0.0197,-0.0197,-0.0197,0.0501,0.0553,0.0643,0.0737,0.0839,0.0948,0.1028,0.112,0.1217,0.1278,0.1249,0.1182,0.089,0.0427,0.0142,-0.0145,-0.0142,-0.0259,-0.0255,-0.0252,-0.0245,-0.0236,-0.0291,-0.0291,-0.0291,-0.0291,-0.0291,0,0.0497,0.0578,0.0683,0.0802,0.0916,0.0981,0.1111,0.1177,0.1285,0.1338,0.1343,0.1048,0.0772,0.0464,0.004,-0.0233,-0.0251,-0.0317,-0.0275,-0.027,-0.0266,-0.0259,-0.0309,-0.0309,-0.031,-0.0311,0,0,0.0502,0.0569,0.062,0.0808,0.0941,0.1097,0.1182,0.1243,0.1293,0.1309,0.1284,0.1204,0.0848,0.0534,0.0175,-0.0053,-0.0103,-0.0109,-0.007,0.0025,0.0032,-0.0213,-0.0194,0,0,0,0,0]}],[{"header":{"parameterUnit":"m.s-1","parameterCategory":2,"la1":30.2991,"la2":30.254,"lo1":-89.0895,"lo2":-89.0444,"dy":0.0017,"dx":0.0017,"nx":28,"ny":28,"refTime":"2025-04-18T09:00:00:Z","depth":"4","parameterNumber":2,"parameterNumberName":"U-component_of_CURRENTS"},"data":[0,0,0,0,0,0,0,0,0,0,0,0,0,0,0,0,0,0,0,0,0,0,0,0,0,0,0,0,0,0,0,0,0,0,0,0,0,0,0,0,0,0,0,0,0,0,0,0,0,0,0,0,0,0,0,0,0,0,0.1313,0.1313,0,0.1371,0.1372,0.1373,0.1427,0.1428,0.1429,0.143,0.1457,0.1457,0.1457,0,0,0,0,0,0,0,0,0,0,0,0,0,0.1244,0.1245,0.1313,0.1313,0.1314,0.1371,0.1372,0.1373,0.1427,0.1428,0.1429,0.143,0.1457,0.1457,0.1457,0,0,0,0,0,0,0,0,0,0,0,0,0,0.1284,0.1245,0.1312,0.1349,0.1353,0.1371,0.1372,0.1373,0.1427,0.1428,0.1429,0.143,0.1457,0.1457,0.1457,0.1434,0,0,0.1457,0.1457,0,0,0,0,0,0,0,0,0.1282,0.1286,0.1343,0.1347,0.1351,0.1394,0.1358,0.1392,0.1427,0.1398,0.143,0.1431,0.1433,0.1435,0.1442,0.1435,0.1436,0.1457,0.1457,0.1457,0.1457,0,0,0,0,0,0,0,0.1279,0.1284,0.1335,0.1344,0.1349,0.1362,0.1369,0.1365,0.1406,0.14,0.1405,0.1413,0.1435,0.1442,0.1443,0.1437,0.1457,0.1457,0.1457,0.1457,0.1496,0.1497,0,0,0,0,0,0,0.1273,0.1281,0.1333,0.1337,0.132,0.1362,0.137,0.1378,0.1407,0.1414,0.1412,0.1415,0.1442,0.1443,0.1445,0.1497,0.1457,0.1457,0.1457,0.1495,0.1496,0.1497,0,0,0,0,0,0,0.1271,0.1277,0.133,0.1311,0.1319,0.1362,0.1371,0.1379,0.1418,0.1417,0.1422,0.1446,0.1443,0.1445,0.1466,0.1495,0.1457,0.1457,0.1494,0.1495,0.1496,0.155,0,0,0,0,0,0,0.1269,0.1276,0.1294,0.1311,0.132,0.1356,0.137,0.1379,0.1419,0.1425,0.1447,0.145,0.1444,0.1466,0.1466,0.1494,0.1457,0.1492,0.1494,0.1496,0.1547,0.1553,0.1559,0,0,0,0,0,0.1266,0.1276,0.1295,0.1302,0.1339,0.1356,0.1363,0.1396,0.142,0.1436,0.1455,0.1451,0.1478,0.1466,0.1466,0.1496,0.1491,0.1494,0.1496,0.1544,0.1552,0.1558,0,0,0,0,0,0,0.1255,0.1283,0.1304,0.1323,0.1348,0.1367,0.1389,0.1411,0.144,0.1456,0.1457,0.146,0.149,0.1483,0.147,0.1512,0.1486,0.1489,0.1523,0.153,0.1536,0.156,0.1457,0,0,0,0,0,0.1261,0.1279,0.1305,0.1324,0.134,0.1372,0.1391,0.1414,0.1434,0.1451,0.1465,0.1481,0.1493,0.1505,0.1508,0.1528,0.1546,0.1548,0.1554,0.1559,0.1578,0.1624,0.1636,0.1505,0.1504,0.1504,0,0,0.1261,0.1281,0.1292,0.1324,0.135,0.1372,0.1387,0.1422,0.1444,0.1446,0.1486,0.1499,0.1502,0.1527,0.1541,0.153,0.1607,0.1562,0.1566,0.1583,0.1628,0.1641,0.1653,0.1506,0.1506,0.1506,0,0,0.1258,0.1292,0.1305,0.1329,0.1372,0.139,0.1407,0.1442,0.1468,0.15,0.1512,0.1548,0.156,0.1576,0.1582,0.1621,0.1633,0.1624,0.1677,0.1721,0.1733,0.1743,0.1788,0.1802,0.163,0.163,0.163,0,0.1263,0.1282,0.1312,0.1333,0.1361,0.1401,0.1427,0.1449,0.1488,0.1521,0.1521,0.1586,0.1585,0.1632,0.165,0.1636,0.1666,0.1649,0.173,0.1741,0.1751,0.1794,0.1809,0.1633,0.1633,0.1633,0.1632,0,0.1266,0.1293,0.1305,0.1348,0.1381,0.1408,0.1447,0.1487,0.1529,0.1562,0.1629,0.1638,0.1687,0.1688,0.1682,0.1755,0.1756,0.173,0.1715,0.1767,0.1809,0.1824,0.1637,0.1636,0.1635,0.1635,0,0,0.1238,0.1296,0.1303,0.1329,0.1396,0.1417,0.1472,0.1534,0.1588,0.1633,0.1702,0.1737,0.1775,0.1786,0.179,0.1829,0.1918,0.182,0.1821,0.187,0.2032,0.1881,0.1883,0.1913,0.1916,0.1918,0.2036,0,0.1235,0.1274,0.1309,0.1353,0.138,0.1445,0.1494,0.1563,0.1624,0.1696,0.1745,0.1808,0.18,0.184,0.188,0.1908,0.1959,0.189,0.197,0.1973,0.1836,0.1894,0.1926,0.2046,0.205,0.2052,0.2054,0,0.1221,0.1254,0.1302,0.1371,0.1393,0.1433,0.1544,0.1594,0.1708,0.1761,0.1851,0.1892,0.1978,0.1947,0.2053,0.2016,0.2042,0.2055,0.2059,0.1912,0.1848,0.1981,0.208,0.2078,0.2076,0.2074,0.2072,0,0.1182,0.1242,0.1285,0.1309,0.1399,0.1448,0.1512,0.1631,0.1696,0.1824,0.1893,0.1988,0.2052,0.2104,0.2147,0.2119,0.2246,0.2201,0.2095,0.2085,0.2163,0.2151,0.2283,0.2283,0.2282,0.2282,0.2282,0,0.1153,0.1181,0.1275,0.1294,0.1363,0.1444,0.1537,0.1617,0.1748,0.1835,0.1936,0.2006,0.21,0.2175,0.2193,0.2192,0.2292,0.2124,0.2108,0.2182,0.217,0.2174,0.216,0.2286,0.2285,0.2285,0.2284,0,0.1087,0.1154,0.1198,0.1302,0.1343,0.14,0.1543,0.1606,0.1749,0.1866,0.1918,0.2058,0.2149,0.222,0.2306,0.2239,0.2256,0.2232,0.2333,0.2317,0.2058,0.2046,0.2124,0.212,0.2116,0.2113,0.211,0,0.1052,0.1069,0.1185,0.123,0.128,0.1379,0.1447,0.1595,0.1667,0.1877,0.1917,0.2064,0.2137,0.2151,0.222,0.2253,0.2218,0.2217,0.2111,0.2067,0.2044,0.2037,0.203,0.2105,0.2104,0.2103,0.2102,0,0.0969,0.1023,0.107,0.1161,0.1237,0.1311,0.142,0.1469,0.1646,0.1783,0.188,0.1935,0.2024,0.2068,0.2111,0.2123,0.2205,0.2178,0.2184,0.2085,0.2044,0.2024,0.2021,0.2089,0.2091,0.2092,0.2093,0,0.0915,0.0928,0.1002,0.1076,0.1165,0.122,0.1293,0.1383,0.1478,0.171,0.1735,0.1884,0.2012,0.2004,0.2044,0.2041,0.1997,0.1918,0.1937,0.1952,0.1833,0.1752,0.1711,0,0,0,0,0,0.0845,0.0856,0.091,0.0988,0.1065,0.1117,0.1261,0.134,0.1514,0.154,0.164,0.1717,0.1779,0.1848,0.1809,0.1948,0.1995,0.1892,0.191,0.2019,0.2034,0.1906,0,0,0,0,0,0,0.0816,0.0847,0.0872,0.0889,0.0919,0.0993,0.1081,0.1203,0.1232,0.1416,0.146,0.1589,0.1671,0.1773,0.1763,0.1784,0.1756,0.1982,0.1977,0.2011,0.2024,0.2036,0.1909,0,0,0,0,0]},{"header":{"parameterUnit":"m.s-1","parameterCategory":2,"la1":30.2991,"la2":30.254,"lo1":-89.0895,"lo2":-89.0444,"dy":0.0017,"dx":0.0017,"nx":28,"ny":28,"refTime":"2025-04-18T09:00:00:Z","depth":"4","parameterNumber":3,"parameterNumberName":"V-component_of_CURRENTS"},"data":[0,0,0,0,0,0,0,0,0,0,0,0,0,0,0,0,0,0,0,0,0,0,0,0,0,0,0,0,0,0,0,0,0,0,0,0,0,0,0,0,0,0,0,0,0,0,0,0,0,0,0,0,0,0,0,0,0,0,0.0025,0.0025,0,-0.0004,-0.0004,-0.0004,-0.0038,-0.0038,-0.0039,-0.0039,-0.0089,-0.009,-0.0091,0,0,0,0,0,0,0,0,0,0,0,0,0,0.0017,0.0018,0.0025,0.0025,0.0025,-0.0004,-0.0004,-0.0005,-0.0038,-0.0038,-0.0039,-0.0039,-0.0089,-0.009,-0.0091,0,0,0,0,0,0,0,0,0,0,0,0,0,0.0007,0.0018,0.0025,0.0006,0.0004,-0.0003,-0.0004,-0.0005,-0.0038,-0.0038,-0.0039,-0.0039,-0.0088,-0.009,-0.0091,-0.0089,0,0,-0.0096,-0.0096,0,0,0,0,0,0,0,0,0.0007,0.0007,0.0009,0.0007,0.0005,-0.0017,-0.0025,-0.0033,-0.0038,-0.0024,-0.0039,-0.004,-0.0065,-0.0069,-0.0075,-0.0091,-0.0093,-0.0096,-0.0097,-0.0097,-0.0098,0,0,0,0,0,0,0,0.0008,0.0008,0.0012,0.0008,0.0006,-0.0013,-0.0015,-0.0027,-0.0042,-0.0025,-0.0027,-0.0028,-0.0067,-0.0073,-0.0076,-0.0094,-0.0096,-0.0097,-0.0098,-0.0099,-0.0085,-0.0084,0,0,0,0,0,0,0.0017,0.0009,0.0013,0.0011,0.0006,-0.0012,-0.0015,-0.001,-0.0042,-0.0047,-0.0027,-0.0029,-0.007,-0.0074,-0.0078,-0.0056,-0.0097,-0.0099,-0.01,-0.0086,-0.0085,-0.0084,0,0,0,0,0,0,0.0017,0.0018,0.0014,0.001,0.0008,-0.0011,-0.0006,-0.0011,-0.0017,-0.0043,-0.0049,-0.003,-0.0071,-0.0076,-0.0077,-0.0059,-0.0099,-0.0101,-0.0088,-0.0086,-0.0084,-0.0025,0,0,0,0,0,0,0.0017,0.0018,0.0023,0.0011,0.0009,0.0019,-0.0006,-0.0011,-0.0016,-0.0019,-0.0047,-0.0052,-0.0072,-0.0075,-0.0079,-0.0062,-0.0102,-0.009,-0.0087,-0.0085,-0.0029,-0.0022,-0.0016,0,0,0,0,0,0.0017,0.0033,0.0023,0.0024,0.0017,0.002,0.0018,0.0,-0.0016,-0.001,-0.0027,-0.0051,-0.0063,-0.0075,-0.008,-0.0063,-0.0091,-0.0088,-0.0085,-0.0032,-0.0023,-0.0016,0,0,0,0,0,0,0.0034,0.0031,0.002,0.0034,0.0029,0.0015,0.0018,0.0004,-0.0005,-0.0011,-0.0039,-0.0044,-0.0039,-0.0056,-0.0068,-0.005,-0.0079,-0.0078,-0.0037,-0.0029,-0.0023,-0.0015,-0.0103,0,0,0,0,0,0.0039,0.005,0.0041,0.0052,0.0051,0.0033,0.0031,0.002,0.001,0.0005,-0.0012,-0.0026,-0.003,-0.0034,-0.0043,-0.0035,-0.0072,-0.0025,-0.0018,-0.0013,-0.0008,-0.0042,-0.0039,-0.0075,-0.0075,-0.0075,0,0,0.0048,0.0048,0.0053,0.0056,0.0048,0.0063,0.003,0.0033,0.0046,0.0002,0.0013,-0.0006,-0.0023,-0.0012,-0.001,-0.0025,-0.0023,-0.0009,-0.0004,-0.0003,-0.0039,-0.0036,-0.0033,-0.0073,-0.0073,-0.0073,0,0,0.008,0.0071,0.0093,0.0095,0.0091,0.0083,0.0087,0.0076,0.007,0.0078,0.0053,0.0049,0.0039,0.0035,0.003,0.0069,0.0012,0.0065,0.0104,0.0072,0.0074,0.0076,0.0023,0.0019,0.007,0.007,0.007,0,0.0089,0.0116,0.0099,0.0122,0.013,0.0098,0.0125,0.0119,0.011,0.011,0.0091,0.008,0.0065,0.0079,0.0095,0.0084,0.0044,0.0074,0.0079,0.008,0.008,0.0026,0.0021,0.0073,0.0073,0.0072,0.0072,0,0.014,0.0159,0.0173,0.0192,0.0198,0.0214,0.0206,0.0208,0.0193,0.0182,0.0184,0.016,0.0152,0.015,0.0134,0.0139,0.0101,0.0088,0.0056,0.0087,0.0028,0.0022,0.0078,0.0076,0.0075,0.0075,0,0,0.0165,0.0202,0.0207,0.0228,0.0236,0.0248,0.0269,0.0278,0.0289,0.027,0.0279,0.0272,0.0241,0.0235,0.0209,0.0185,0.0153,0.0141,0.0138,0.0083,0.0057,0.0043,0.0034,0.0132,0.0132,0.0132,0.0009,0,0.0209,0.027,0.0274,0.0327,0.0356,0.034,0.0364,0.0364,0.035,0.0349,0.0315,0.0311,0.0279,0.027,0.0243,0.0175,0.0141,0.0186,0.004,0.0036,0.0015,0.0029,0.0131,0.0004,0.0003,0.0002,0.0001,0,0.0257,0.0294,0.0356,0.0397,0.0407,0.0432,0.0453,0.0468,0.0454,0.0439,0.042,0.038,0.0349,0.0313,0.0208,0.0232,0.0154,0.0095,0.0088,0.0052,0.0011,-0.0031,-0.0011,-0.001,-0.0009,-0.0008,-0.0007,0,0.0286,0.0348,0.0401,0.0416,0.0457,0.048,0.0497,0.0497,0.0512,0.0491,0.0485,0.0433,0.0398,0.0307,0.0188,0.0191,0.0053,0.0041,-0.0048,-0.0052,-0.0032,-0.0032,-0.0034,-0.0034,-0.0034,-0.0033,-0.0033,0,0.0328,0.0369,0.0421,0.045,0.0504,0.052,0.0566,0.0564,0.0573,0.0584,0.0531,0.0513,0.0393,0.03,0.0194,0.005,0.0053,-0.0043,-0.0078,-0.0005,-0.0001,-0.0038,-0.0036,-0.0038,-0.0037,-0.0036,-0.0035,0,0.0335,0.0379,0.0436,0.0495,0.052,0.0551,0.061,0.0633,0.0637,0.0646,0.064,0.0562,0.0434,0.0303,0.0138,0.0055,-0.0076,-0.0129,-0.0056,-0.0086,-0.0166,-0.016,-0.0241,-0.0242,-0.0243,-0.0244,-0.0245,0,0.0336,0.037,0.0452,0.0486,0.0512,0.0574,0.0611,0.0653,0.0678,0.0671,0.0666,0.0561,0.0489,0.0245,0.0106,-0.0106,-0.013,-0.0203,-0.0165,-0.0158,-0.0185,-0.0177,-0.017,-0.0247,-0.0247,-0.0248,-0.0248,0,0.0313,0.0344,0.0382,0.0462,0.0517,0.0588,0.0649,0.0684,0.0721,0.0732,0.068,0.0565,0.0414,0.0236,0.0068,-0.0078,-0.0153,-0.0216,-0.0214,-0.0178,-0.0167,-0.019,-0.0181,-0.0252,-0.0251,-0.0251,-0.0251,0,0.0267,0.0284,0.0339,0.0413,0.0486,0.0566,0.0622,0.0661,0.0701,0.0714,0.069,0.0546,0.0471,0.0248,0.0096,-0.005,-0.0084,-0.0121,-0.0125,-0.0122,-0.0042,-0.0007,-0.0073,0,0,0,0,0,0.0216,0.0238,0.0287,0.0373,0.0453,0.0512,0.0618,0.0674,0.0737,0.0703,0.0707,0.0573,0.0352,0.0257,0.0105,0.006,-0.0121,-0.0123,-0.0169,-0.0274,-0.0269,-0.0196,0,0,0,0,0,0,0.0177,0.0209,0.0257,0.0328,0.0386,0.048,0.0559,0.0614,0.0616,0.0653,0.0539,0.0517,0.03,0.0419,0.0088,0.0046,-0.0004,-0.0215,-0.0219,-0.0277,-0.0272,-0.0269,-0.0191,0,0,0,0,0]}]]